N99TP KGEG-KGPI

Flight info

Callsign N99TP
Flight time 1h 11m
Altitude 5000
Route NOT DCT
Aircraft HU16/M-S/N

Departure

Time 2026-05-06 19:40
Airport Spokane International Airport (KGEG)

Arrival

Time 2026-05-06 20:52
Airport Glacier Park International Airport (KGPI)
Time Latitude Longitude Altitude Speed Heading
2026-05-06 19:23 47.62874 -117.52796 2368 ft 0 kts 342°
2026-05-06 19:31 47.62877 -117.52797 2368 ft 2 kts 351°
2026-05-06 19:32 47.62884 -117.52763 2368 ft 7 kts 146°
2026-05-06 19:32 47.62821 -117.52749 2368 ft 10 kts 175°
2026-05-06 19:32 47.62752 -117.52788 2368 ft 12 kts 223°
2026-05-06 19:32 47.62694 -117.52876 2368 ft 12 kts 225°
2026-05-06 19:33 47.62638 -117.52962 2368 ft 12 kts 226°
2026-05-06 19:33 47.62583 -117.53046 2368 ft 11 kts 225°
2026-05-06 19:33 47.62535 -117.53115 2368 ft 9 kts 229°
2026-05-06 19:33 47.62486 -117.53192 2367 ft 12 kts 224°
2026-05-06 19:34 47.62420 -117.53292 2367 ft 15 kts 226°
2026-05-06 19:34 47.62341 -117.53409 2367 ft 16 kts 225°
2026-05-06 19:34 47.62265 -117.53527 2367 ft 16 kts 225°
2026-05-06 19:34 47.62188 -117.53640 2367 ft 16 kts 227°
2026-05-06 19:35 47.62116 -117.53746 2367 ft 10 kts 223°
2026-05-06 19:35 47.62107 -117.53759 2367 ft 0 kts 220°
2026-05-06 19:35 47.62104 -117.53763 2367 ft 4 kts 223°
2026-05-06 19:36 47.62064 -117.53826 2367 ft 13 kts 226°
2026-05-06 19:36 47.61986 -117.53946 2367 ft 19 kts 224°
2026-05-06 19:36 47.61883 -117.54099 2367 ft 22 kts 226°
2026-05-06 19:36 47.61814 -117.54294 2367 ft 23 kts 270°
2026-05-06 19:37 47.61817 -117.54537 2367 ft 25 kts 270°
2026-05-06 19:37 47.61817 -117.54783 2367 ft 21 kts 271°
2026-05-06 19:37 47.61820 -117.54964 2367 ft 14 kts 269°
2026-05-06 19:37 47.61820 -117.55044 2368 ft 10 kts 270°
2026-05-06 19:38 47.61820 -117.55125 2368 ft 5 kts 271°
2026-05-06 19:38 47.61821 -117.55203 2368 ft 10 kts 270°
2026-05-06 19:38 47.61796 -117.55314 2368 ft 13 kts 200°
2026-05-06 19:38 47.61704 -117.55304 2367 ft 10 kts 130°
2026-05-06 19:39 47.61695 -117.55160 2366 ft 24 kts 91°
2026-05-06 19:39 47.61693 -117.54571 2367 ft 89 kts 91°
2026-05-06 19:39 47.61681 -117.53445 2435 ft 123 kts 96°
2026-05-06 19:39 47.61648 -117.52128 2592 ft 131 kts 95°
2026-05-06 19:40 47.61656 -117.50762 2735 ft 134 kts 93°
2026-05-06 19:40 47.61677 -117.49355 2776 ft 142 kts 91°
2026-05-06 19:40 47.61686 -117.47885 2916 ft 141 kts 95°
2026-05-06 19:40 47.61650 -117.46441 3046 ft 141 kts 97°
2026-05-06 19:41 47.61616 -117.44999 3194 ft 140 kts 99°
2026-05-06 19:41 47.61551 -117.43556 3292 ft 141 kts 102°
2026-05-06 19:41 47.61556 -117.42033 3303 ft 157 kts 83°
2026-05-06 19:41 47.61833 -117.40531 3589 ft 147 kts 79°
2026-05-06 19:42 47.62046 -117.39016 3649 ft 150 kts 87°
2026-05-06 19:42 47.62110 -117.37524 3830 ft 146 kts 90°
2026-05-06 19:42 47.62122 -117.35945 3802 ft 156 kts 100°
2026-05-06 19:42 47.61975 -117.34457 4126 ft 139 kts 108°
2026-05-06 19:43 47.61701 -117.33080 4175 ft 143 kts 112°
2026-05-06 19:43 47.61325 -117.31704 4262 ft 146 kts 121°
2026-05-06 19:43 47.60821 -117.30388 4432 ft 148 kts 128°
2026-05-06 19:43 47.60255 -117.29184 4612 ft 138 kts 126°
2026-05-06 19:44 47.59782 -117.27882 4571 ft 151 kts 117°
2026-05-06 19:44 47.59385 -117.26545 4837 ft 135 kts 120°
2026-05-06 19:44 47.59118 -117.25255 4962 ft 129 kts 101°
2026-05-06 19:44 47.58993 -117.23942 5099 ft 131 kts 102°
2026-05-06 19:45 47.58848 -117.22609 5234 ft 131 kts 103°
2026-05-06 19:45 47.58722 -117.21232 5397 ft 140 kts 103°
2026-05-06 19:45 47.58557 -117.19776 5506 ft 149 kts 102°
2026-05-06 19:45 47.58365 -117.18231 5501 ft 155 kts 103°
2026-05-06 19:46 47.58160 -117.16610 5495 ft 163 kts 104°
2026-05-06 19:46 47.57948 -117.14935 5496 ft 166 kts 104°
2026-05-06 19:46 47.57743 -117.13239 5500 ft 167 kts 102°
2026-05-06 19:46 47.57544 -117.11571 5497 ft 164 kts 105°
2026-05-06 19:47 47.57366 -117.09901 5504 ft 165 kts 104°
2026-05-06 19:47 47.57203 -117.08220 5507 ft 168 kts 103°
2026-05-06 19:47 47.57045 -117.06486 5512 ft 170 kts 102°
2026-05-06 19:47 47.56944 -117.04745 5500 ft 171 kts 89°
2026-05-06 19:48 47.57063 -117.03017 5503 ft 168 kts 87°
2026-05-06 19:48 47.57231 -117.01312 5520 ft 171 kts 77°
2026-05-06 19:48 47.57604 -116.99627 5506 ft 172 kts 72°
2026-05-06 19:48 47.57958 -116.97954 5516 ft 171 kts 74°
2026-05-06 19:49 47.58319 -116.96252 5271 ft 177 kts 74°
2026-05-06 19:49 47.58695 -116.94435 4991 ft 192 kts 73°
2026-05-06 19:49 47.59117 -116.92552 4717 ft 192 kts 74°
2026-05-06 19:49 47.59541 -116.90650 4446 ft 197 kts 73°
2026-05-06 19:50 47.59958 -116.88708 4168 ft 202 kts 75°
2026-05-06 19:50 47.60376 -116.86719 3863 ft 198 kts 73°
2026-05-06 19:50 47.60788 -116.84814 3545 ft 190 kts 73°
2026-05-06 19:50 47.61106 -116.82939 3228 ft 188 kts 88°
2026-05-06 19:51 47.60685 -116.81217 3020 ft 175 kts 135°
2026-05-06 19:51 47.59728 -116.80283 3007 ft 158 kts 148°
2026-05-06 19:51 47.58870 -116.79397 3005 ft 143 kts 147°
2026-05-06 19:51 47.58031 -116.79180 2998 ft 114 kts 207°
2026-05-06 19:52 47.57711 -116.80034 3006 ft 93 kts 272°
2026-05-06 19:52 47.58069 -116.80643 2995 ft 86 kts 359°
2026-05-06 19:52 47.58544 -116.80154 2993 ft 84 kts 44°
2026-05-06 19:52 47.58960 -116.79542 2989 ft 84 kts 44°
2026-05-06 19:53 47.59376 -116.78908 2992 ft 88 kts 42°
2026-05-06 19:53 47.59797 -116.78256 2991 ft 87 kts 42°
2026-05-06 19:53 47.60227 -116.77633 2970 ft 87 kts 39°
2026-05-06 19:53 47.60676 -116.77059 2919 ft 84 kts 34°
2026-05-06 19:54 47.61147 -116.76550 2895 ft 85 kts 33°
2026-05-06 19:54 47.61679 -116.76173 2858 ft 86 kts 18°
2026-05-06 19:54 47.62210 -116.75799 2905 ft 83 kts 18°
2026-05-06 19:54 47.62759 -116.75673 2829 ft 81 kts 350°
2026-05-06 19:55 47.63281 -116.75961 2677 ft 80 kts 330°
2026-05-06 19:55 47.63759 -116.76349 2548 ft 75 kts 328°
2026-05-06 19:55 47.64186 -116.76752 2395 ft 73 kts 323°
2026-05-06 19:55 47.64611 -116.77171 2281 ft 73 kts 325°
2026-05-06 19:56 47.65047 -116.77571 2161 ft 75 kts 326°
2026-05-06 19:56 47.65424 -116.77918 2139 ft 49 kts 325°
2026-05-06 19:56 47.65567 -116.78086 2138 ft 15 kts 319°
2026-05-06 19:56 47.65625 -116.78160 2137 ft 9 kts 321°
2026-05-06 19:57 47.65693 -116.78236 2137 ft 16 kts 322°
2026-05-06 19:57 47.65813 -116.78375 2134 ft 22 kts 322°
2026-05-06 19:57 47.65909 -116.78455 2132 ft 10 kts 344°
2026-05-06 19:57 47.66008 -116.78475 2135 ft 31 kts 343°
2026-05-06 19:58 47.66180 -116.78554 2133 ft 20 kts 342°
2026-05-06 19:58 47.66346 -116.78621 2133 ft 28 kts 346°
2026-05-06 19:58 47.66454 -116.78667 2133 ft 7 kts 339°
2026-05-06 19:58 47.66493 -116.78685 2129 ft 5 kts 353°
2026-05-06 19:59 47.66533 -116.78690 2131 ft 6 kts 342°
2026-05-06 19:59 47.66578 -116.78709 2129 ft 7 kts 347°
2026-05-06 19:59 47.66632 -116.78721 2129 ft 9 kts 355°
2026-05-06 19:59 47.66700 -116.78720 2128 ft 11 kts
2026-05-06 20:00 47.66774 -116.78704 2128 ft 11 kts 12°
2026-05-06 20:00 47.66844 -116.78686 2129 ft 10 kts
2026-05-06 20:00 47.66905 -116.78679 2130 ft 8 kts
2026-05-06 20:00 47.66955 -116.78661 2129 ft 7 kts 21°
2026-05-06 20:01 47.67002 -116.78645 2129 ft 7 kts 357°
2026-05-06 20:01 47.67039 -116.78646 2130 ft 4 kts
2026-05-06 20:01 47.67066 -116.78640 2130 ft 4 kts 14°
2026-05-06 20:01 47.67081 -116.78634 2128 ft 1 kts 360°
2026-05-06 20:02 47.67088 -116.78631 2124 ft 1 kts 326°
2026-05-06 20:02 47.67092 -116.78629 2130 ft 1 kts 284°
2026-05-06 20:02 47.67096 -116.78627 2129 ft 0 kts 246°
2026-05-06 20:02 47.67099 -116.78626 2128 ft 0 kts 227°
2026-05-06 20:03 47.67101 -116.78627 2130 ft 0 kts 231°
2026-05-06 20:03 47.67103 -116.78626 2130 ft 0 kts 227°
2026-05-06 20:03 47.67103 -116.78635 2130 ft 2 kts 276°
2026-05-06 20:03 47.67107 -116.78654 2130 ft 1 kts 334°
2026-05-06 20:04 47.67119 -116.78665 2128 ft 2 kts 291°
2026-05-06 20:04 47.67126 -116.78678 2128 ft 1 kts 244°
2026-05-06 20:04 47.67113 -116.78715 2128 ft 6 kts 229°
2026-05-06 20:04 47.67075 -116.78756 2124 ft 7 kts 198°
2026-05-06 20:05 47.67025 -116.78769 2125 ft 8 kts 181°
2026-05-06 20:05 47.66972 -116.78768 2124 ft 8 kts 175°
2026-05-06 20:05 47.66918 -116.78761 2121 ft 8 kts 175°
2026-05-06 20:05 47.66857 -116.78755 2134 ft 10 kts 176°
2026-05-06 20:06 47.66784 -116.78744 2131 ft 11 kts 173°
2026-05-06 20:06 47.66708 -116.78732 2129 ft 11 kts 173°
2026-05-06 20:06 47.66628 -116.78725 2128 ft 17 kts 177°
2026-05-06 20:06 47.66302 -116.78628 2133 ft 76 kts 165°
2026-05-06 20:07 47.65666 -116.78358 2260 ft 110 kts 167°
2026-05-06 20:07 47.64868 -116.77883 2472 ft 134 kts 150°
2026-05-06 20:07 47.64229 -116.76900 2904 ft 135 kts 119°
2026-05-06 20:07 47.63916 -116.75567 3226 ft 140 kts 104°
2026-05-06 20:08 47.63683 -116.74130 3563 ft 145 kts 105°
2026-05-06 20:08 47.63472 -116.72679 3924 ft 144 kts 107°
2026-05-06 20:08 47.63255 -116.71208 4180 ft 149 kts 108°
2026-05-06 20:08 47.62952 -116.69622 4365 ft 169 kts 110°
2026-05-06 20:09 47.62655 -116.68024 4749 ft 156 kts 109°
2026-05-06 20:09 47.62440 -116.66430 4907 ft 160 kts 101°
2026-05-06 20:09 47.62398 -116.64787 5236 ft 163 kts 96°
2026-05-06 20:09 47.62280 -116.63110 5402 ft 165 kts 100°
2026-05-06 20:10 47.62199 -116.61405 5490 ft 168 kts 95°
2026-05-06 20:10 47.62185 -116.59663 5481 ft 171 kts 90°
2026-05-06 20:10 47.62274 -116.57947 5642 ft 168 kts 86°
2026-05-06 20:10 47.62382 -116.56166 5576 ft 178 kts 85°
2026-05-06 20:11 47.62550 -116.54359 5575 ft 173 kts 81°
2026-05-06 20:11 47.62818 -116.52660 5572 ft 171 kts 75°
2026-05-06 20:11 47.63199 -116.50970 5503 ft 173 kts 72°
2026-05-06 20:11 47.63603 -116.49315 5496 ft 166 kts 70°
2026-05-06 20:12 47.63995 -116.47702 5500 ft 168 kts 71°
2026-05-06 20:12 47.64391 -116.46105 5505 ft 166 kts 68°
2026-05-06 20:12 47.64871 -116.44566 5486 ft 162 kts 67°
2026-05-06 20:12 47.65333 -116.43103 5500 ft 154 kts 65°
2026-05-06 20:13 47.65780 -116.41675 5477 ft 147 kts 65°
2026-05-06 20:13 47.66208 -116.40330 5490 ft 146 kts 64°
2026-05-06 20:13 47.66642 -116.38950 5488 ft 150 kts 65°
2026-05-06 20:13 47.67077 -116.37540 5493 ft 152 kts 65°
2026-05-06 20:14 47.67522 -116.36128 5506 ft 151 kts 65°
2026-05-06 20:14 47.67974 -116.34699 5511 ft 156 kts 66°
2026-05-06 20:14 47.68435 -116.33233 5506 ft 158 kts 66°
2026-05-06 20:14 47.68898 -116.31772 5502 ft 156 kts 65°
2026-05-06 20:15 47.69354 -116.30295 5496 ft 160 kts 65°
2026-05-06 20:15 47.69821 -116.28804 5501 ft 159 kts 64°
2026-05-06 20:15 47.70294 -116.27316 5506 ft 162 kts 65°
2026-05-06 20:15 47.70768 -116.25804 5498 ft 163 kts 64°
2026-05-06 20:16 47.71242 -116.24268 5493 ft 164 kts 65°
2026-05-06 20:16 47.71715 -116.22736 5487 ft 162 kts 62°
2026-05-06 20:16 47.72161 -116.21323 5499 ft 153 kts 65°
2026-05-06 20:16 47.72618 -116.19900 5477 ft 147 kts 64°
2026-05-06 20:17 47.73003 -116.18494 5499 ft 149 kts 77°
2026-05-06 20:17 47.73272 -116.16990 5510 ft 158 kts 73°
2026-05-06 20:17 47.73519 -116.15365 5489 ft 162 kts 76°
2026-05-06 20:17 47.73882 -116.13786 5508 ft 166 kts 71°
2026-05-06 20:18 47.74284 -116.12177 5513 ft 163 kts 69°
2026-05-06 20:18 47.74564 -116.10571 5492 ft 158 kts 94°
2026-05-06 20:18 47.74396 -116.08954 5479 ft 155 kts 104°
2026-05-06 20:18 47.74179 -116.07413 5481 ft 149 kts 107°
2026-05-06 20:19 47.73951 -116.05869 5471 ft 157 kts 104°
2026-05-06 20:19 47.73742 -116.04288 5490 ft 157 kts 103°
2026-05-06 20:19 47.73506 -116.02675 5407 ft 159 kts 106°
2026-05-06 20:19 47.73241 -116.01116 5441 ft 157 kts 107°
2026-05-06 20:20 47.73037 -115.99536 5573 ft 157 kts 103°
2026-05-06 20:20 47.72835 -115.97953 5680 ft 156 kts 107°
2026-05-06 20:20 47.72662 -115.96451 5805 ft 147 kts 104°
2026-05-06 20:20 47.72481 -115.94939 5925 ft 151 kts 104°
2026-05-06 20:21 47.72299 -115.93385 6038 ft 152 kts 103°
2026-05-06 20:21 47.72109 -115.91912 6166 ft 155 kts 104°
2026-05-06 20:21 47.71898 -115.90334 6295 ft 156 kts 104°
2026-05-06 20:21 47.71677 -115.88761 6411 ft 156 kts 104°
2026-05-06 20:22 47.71596 -115.87131 6465 ft 162 kts 89°
2026-05-06 20:22 47.71663 -115.85479 6475 ft 164 kts 88°
2026-05-06 20:22 47.71691 -115.83770 6477 ft 169 kts 89°
2026-05-06 20:22 47.71744 -115.82042 6619 ft 166 kts 89°
2026-05-06 20:23 47.71803 -115.80344 6829 ft 161 kts 88°
2026-05-06 20:23 47.71825 -115.78702 7056 ft 157 kts 90°
2026-05-06 20:23 47.71853 -115.77094 7273 ft 157 kts 88°
2026-05-06 20:23 47.71864 -115.75540 7477 ft 154 kts 89°
2026-05-06 20:24 47.71861 -115.73934 7514 ft 161 kts 89°
2026-05-06 20:24 47.71850 -115.72278 7470 ft 151 kts 90°
2026-05-06 20:24 47.71843 -115.70736 7495 ft 151 kts 89°
2026-05-06 20:24 47.71828 -115.69157 7486 ft 157 kts 89°
2026-05-06 20:25 47.71824 -115.67532 7499 ft 160 kts 89°
2026-05-06 20:25 47.71832 -115.65897 7491 ft 153 kts 87°
2026-05-06 20:25 47.71953 -115.64345 7494 ft 153 kts 73°
2026-05-06 20:25 47.72212 -115.62811 7504 ft 154 kts 75°
2026-05-06 20:26 47.72459 -115.61254 7501 ft 157 kts 72°
2026-05-06 20:26 47.72724 -115.59686 7504 ft 157 kts 73°
2026-05-06 20:26 47.72964 -115.58112 7505 ft 156 kts 75°
2026-05-06 20:26 47.73219 -115.56606 7506 ft 157 kts 74°
2026-05-06 20:27 47.73478 -115.55034 7510 ft 157 kts 74°
2026-05-06 20:27 47.73744 -115.53430 7488 ft 160 kts 73°
2026-05-06 20:27 47.74007 -115.51855 7488 ft 154 kts 72°
2026-05-06 20:27 47.74231 -115.50338 7502 ft 151 kts 74°
2026-05-06 20:28 47.74469 -115.48811 7500 ft 155 kts 73°
2026-05-06 20:28 47.74715 -115.47241 7498 ft 157 kts 73°
2026-05-06 20:28 47.74966 -115.45668 7505 ft 158 kts 73°
2026-05-06 20:28 47.75217 -115.44063 7504 ft 161 kts 74°
2026-05-06 20:29 47.75476 -115.42445 7505 ft 162 kts 73°
2026-05-06 20:29 47.75751 -115.40807 7507 ft 165 kts 73°
2026-05-06 20:29 47.76037 -115.39149 7514 ft 167 kts 72°
2026-05-06 20:29 47.76322 -115.37444 7476 ft 174 kts 75°
2026-05-06 20:30 47.76605 -115.35705 7493 ft 172 kts 73°
2026-05-06 20:30 47.77101 -115.32411 7481 ft 165 kts 74°
2026-05-06 20:30 47.77348 -115.30749 7443 ft 169 kts 74°
2026-05-06 20:31 47.77659 -115.29231 7499 ft 158 kts 59°
2026-05-06 20:31 47.78253 -115.27877 7508 ft 159 kts 54°
2026-05-06 20:31 47.78803 -115.26427 7510 ft 162 kts 57°
2026-05-06 20:31 47.79378 -115.25026 7510 ft 156 kts 56°
2026-05-06 20:32 47.79911 -115.23661 7509 ft 148 kts 54°
2026-05-06 20:32 47.80391 -115.22330 7498 ft 147 kts 57°
2026-05-06 20:32 47.80828 -115.20985 7509 ft 155 kts 57°
2026-05-06 20:32 47.81317 -115.19531 7495 ft 154 kts 58°
2026-05-06 20:33 47.81811 -115.18136 7501 ft 152 kts 54°
2026-05-06 20:33 47.82308 -115.16747 7503 ft 154 kts 53°
2026-05-06 20:33 47.82796 -115.15339 7501 ft 156 kts 54°
2026-05-06 20:33 47.83330 -115.13929 7504 ft 159 kts 54°
2026-05-06 20:34 47.83870 -115.12480 7500 ft 160 kts 56°
2026-05-06 20:34 47.84397 -115.11039 7524 ft 162 kts 56°
2026-05-06 20:34 47.84936 -115.09533 7524 ft 166 kts 58°
2026-05-06 20:34 47.85474 -115.08023 7508 ft 164 kts 56°
2026-05-06 20:35 47.86029 -115.06535 7504 ft 166 kts 57°
2026-05-06 20:35 47.86575 -115.05049 7506 ft 163 kts 57°
2026-05-06 20:35 47.87124 -115.03588 7501 ft 160 kts 55°
2026-05-06 20:35 47.87649 -115.02131 7509 ft 161 kts 57°
2026-05-06 20:36 47.88183 -115.00649 7507 ft 163 kts 58°
2026-05-06 20:36 47.88730 -114.99181 7508 ft 162 kts 56°
2026-05-06 20:36 47.89278 -114.97708 7504 ft 165 kts 56°
2026-05-06 20:36 47.89825 -114.96222 7506 ft 163 kts 57°
2026-05-06 20:37 47.90378 -114.94742 7526 ft 165 kts 56°
2026-05-06 20:37 47.90928 -114.93219 7518 ft 167 kts 56°
2026-05-06 20:37 47.91480 -114.91703 7516 ft 164 kts 57°
2026-05-06 20:37 47.92049 -114.90213 7521 ft 169 kts 55°
2026-05-06 20:38 47.92606 -114.88682 7521 ft 167 kts 57°
2026-05-06 20:38 47.93137 -114.87179 7516 ft 163 kts 57°
2026-05-06 20:38 47.93680 -114.85711 7519 ft 164 kts 56°
2026-05-06 20:38 47.94217 -114.84237 7511 ft 164 kts 56°
2026-05-06 20:39 47.94733 -114.82848 7505 ft 154 kts 55°
2026-05-06 20:39 47.95235 -114.81475 7519 ft 151 kts 56°
2026-05-06 20:39 47.95746 -114.80071 7533 ft 158 kts 55°
2026-05-06 20:39 47.96271 -114.78604 7521 ft 162 kts 56°
2026-05-06 20:40 47.96823 -114.77110 7526 ft 168 kts 55°
2026-05-06 20:40 47.97380 -114.75605 7524 ft 164 kts 56°
2026-05-06 20:40 47.97919 -114.74133 7526 ft 162 kts 56°
2026-05-06 20:40 47.98450 -114.72651 7526 ft 163 kts 57°
2026-05-06 20:41 47.98994 -114.71187 7535 ft 162 kts 55°
2026-05-06 20:41 47.99535 -114.69693 7517 ft 164 kts 56°
2026-05-06 20:41 48.00070 -114.68205 7553 ft 163 kts 56°
2026-05-06 20:41 48.00621 -114.66691 7548 ft 170 kts 57°
2026-05-06 20:42 48.01188 -114.65156 7554 ft 170 kts 56°
2026-05-06 20:42 48.01763 -114.63599 7546 ft 171 kts 56°
2026-05-06 20:42 48.02341 -114.62061 7544 ft 171 kts 55°
2026-05-06 20:42 48.02919 -114.60509 7561 ft 171 kts 56°
2026-05-06 20:43 48.03490 -114.58940 7546 ft 173 kts 57°
2026-05-06 20:43 48.04070 -114.57372 7538 ft 173 kts 55°
2026-05-06 20:43 48.04654 -114.55801 7541 ft 174 kts 56°
2026-05-06 20:43 48.05232 -114.54206 7564 ft 174 kts 57°
2026-05-06 20:44 48.05840 -114.52660 7551 ft 171 kts 56°
2026-05-06 20:44 48.06437 -114.51161 7558 ft 165 kts 56°
2026-05-06 20:44 48.07069 -114.49778 7548 ft 158 kts 38°
2026-05-06 20:44 48.08039 -114.49214 7556 ft 151 kts
2026-05-06 20:45 48.08978 -114.48425 7550 ft 156 kts 31°
2026-05-06 20:45 48.09836 -114.47550 7501 ft 143 kts 28°
2026-05-06 20:45 48.10620 -114.46763 7467 ft 131 kts 28°
2026-05-06 20:45 48.11371 -114.45995 7318 ft 131 kts 29°
2026-05-06 20:46 48.12124 -114.45241 7154 ft 133 kts 30°
2026-05-06 20:46 48.12881 -114.44424 6979 ft 135 kts 31°
2026-05-06 20:46 48.13660 -114.43635 6808 ft 136 kts 30°
2026-05-06 20:46 48.14442 -114.42820 6660 ft 139 kts 32°
2026-05-06 20:47 48.15237 -114.41983 6482 ft 141 kts 32°
2026-05-06 20:47 48.16050 -114.41142 6305 ft 142 kts 32°
2026-05-06 20:47 48.16872 -114.40305 6111 ft 142 kts 32°
2026-05-06 20:47 48.17689 -114.39451 5923 ft 146 kts 33°
2026-05-06 20:48 48.18524 -114.38578 5724 ft 145 kts 33°
2026-05-06 20:48 48.19345 -114.37734 5541 ft 141 kts 31°
2026-05-06 20:48 48.20157 -114.36898 5362 ft 142 kts 34°
2026-05-06 20:48 48.20964 -114.36034 5178 ft 144 kts 34°
2026-05-06 20:49 48.21780 -114.35195 4990 ft 141 kts 32°
2026-05-06 20:49 48.22588 -114.34368 4793 ft 140 kts 34°
2026-05-06 20:49 48.23368 -114.33538 4601 ft 136 kts 36°
2026-05-06 20:49 48.24154 -114.32731 4385 ft 138 kts 36°
2026-05-06 20:50 48.24942 -114.31908 4172 ft 139 kts 39°
2026-05-06 20:50 48.25724 -114.31092 4021 ft 134 kts 36°
2026-05-06 20:50 48.26472 -114.30315 3870 ft 128 kts 36°
2026-05-06 20:50 48.27190 -114.29561 3695 ft 121 kts 35°
2026-05-06 20:51 48.27844 -114.28849 3529 ft 112 kts 34°
2026-05-06 20:51 48.28461 -114.28244 3361 ft 103 kts 35°
2026-05-06 20:51 48.29031 -114.27643 3219 ft 100 kts 39°
2026-05-06 20:51 48.29606 -114.27052 3080 ft 99 kts 37°
2026-05-06 20:52 48.30147 -114.26489 2979 ft 86 kts 37°
2026-05-06 20:52 48.30537 -114.26080 2975 ft 39 kts 36°
2026-05-06 20:52 48.30650 -114.25958 2974 ft 10 kts 52°
2026-05-06 20:52 48.30636 -114.25881 2974 ft 9 kts 127°
2026-05-06 20:53 48.30638 -114.25772 2974 ft 15 kts 36°
2026-05-06 20:53 48.30740 -114.25664 2974 ft 21 kts 36°
2026-05-06 20:53 48.30872 -114.25528 2974 ft 24 kts 34°
2026-05-06 20:53 48.30990 -114.25405 2975 ft 15 kts 32°
2026-05-06 20:54 48.31031 -114.25281 2975 ft 16 kts 98°
2026-05-06 20:54 48.31024 -114.25092 2975 ft 20 kts 90°
2026-05-06 20:54 48.31058 -114.24899 2976 ft 21 kts 46°
2026-05-06 20:54 48.31139 -114.24775 2975 ft 9 kts 45°
2026-05-06 20:55 48.31194 -114.24786 2975 ft 12 kts 315°
2026-05-06 20:55 48.31264 -114.24885 2975 ft 16 kts 322°
2026-05-06 20:55 48.31363 -114.24852 2975 ft 12 kts 38°
2026-05-06 20:55 48.31414 -114.24799 2975 ft 8 kts 34°
2026-05-06 20:56 48.31423 -114.24789 2975 ft 0 kts 36°